Content
SEND FEEDBACK

Daily
Averages
Monthly
Summary
Austria

LINZ, AUSTRIA


Home > Europe > Austria
Elevation: 970 feet     Latitude: 48 14N     Longitude: 014 11E

WEATHER
 
SELECT A DAY
Number of Records: 322,577;   Date Range: 7/1/96 - 12/18/14
 
SHARE

PRINT THIS DATA

[ ← Previous Day ]
WEATHER ALMANAC - MARCH 14, 2013
[ Next Day → ]
[ °C ]   °F
Weather ElementAverageHighLow
Temperature28.8 °F31 °F (7:00 pm)26 °F (10:00 am)
Dewpoint22 °F29 °F (1:00 am)15.8 °F (7:20 pm)
Humidity75.4 %100 % (2:20 am)47 % (10:00 pm)
Barometer29.71 in29.81 in (10:00 pm)29.65 in (12:50 am)
Wind Speed12.6 mph17.9 mph (1:00 pm)
Weather ElementAverage
Visibility5.7 mi
Wind DirectionWNW (278.9 °)

Weather ElementTotal
Precipitation---
Heating Degree Days36.5 (Base 65)
Averaged from 55 records on March 14, 2013
WEATHER CONDITIONS BREAKOUT
WIND DIRECTION BREAKOUT
WEATHER BY HOUR - MARCH 14, 2013
[ °C ]   °F
Local TimeTemperatureDewpointHumidityBarometerVisibilityWind DirectionWind SpeedGust SpeedPrecipitationEventsConditions
12:50 AM30.2 °F28.4 °F93 %29.65 inWest (280°)13.8 mphSnowSnow
1:00 AM30.0 °F29.0 °F94 %29.72 in3.0 miWest (280°)13.4 mph
1:20 AM30.2 °F28.4 °F93 %29.65 inWest (280°)11.5 mphSnowSnow
1:50 AM30.2 °F28.4 °F93 %29.65 inWest (280°)11.5 mphSnowLight Snow
2:20 AM28.4 °F28.4 °F100 %29.65 in3.1 miWest (280°)13.8 mphSnowLight Snow
2:50 AM28.4 °F26.6 °F93 %29.65 in5.6 miWest (270°)11.5 mphSnowLight Snow
3:20 AM28.4 °F26.6 °F93 %29.65 in5.6 miWest (260°)12.7 mphSnowLight Snow
3:50 AM28.4 °F26.6 °F93 %29.65 in5.6 miWest (260°)15.0 mphMostly Cloudy
4:00 AM29.0 °F26.0 °F82 %29.73 in6.0 miWest (260°)15.7 mphSnowLight Snow
4:20 AM28.4 °F24.8 °F86 %29.68 in5.6 miWest (270°)13.8 mphMostly Cloudy
4:50 AM28.4 °F24.8 °F86 %29.68 in5.6 miWNW (290°)11.5 mphMostly Cloudy
5:20 AM28.4 °F24.8 °F86 %29.68 in5.6 miWest (280°)10.4 mphSnowLight Snow
5:50 AM28.4 °F24.8 °F86 %29.68 in5.6 miWest (280°)13.8 mphSnowLight Snow
6:20 AM28.4 °F23.0 °F80 %29.68 in5.0 miWest (270°)12.7 mphSnowLight Snow
6:50 AM26.6 °F24.8 °F93 %29.68 inWest (280°)12.7 mphSnowLight Snow
7:00 AM27.0 °F24.0 °F84 %29.76 in2.0 miWest (280°)13.4 mphSnowLight Snow
7:20 AM26.6 °F24.8 °F93 %29.68 in0.8 miWest (270°)11.5 mphSnowSnow
7:50 AM26.6 °F24.8 °F93 %29.71 in1.4 miWest (260°)11.5 mphSnowLight Snow
8:20 AM26.6 °F24.8 °F93 %29.71 in1.6 miWest (270°)11.5 mphSnowLight Snow
8:50 AM26.6 °F24.8 °F93 %29.71 in1.1 miWest (270°)10.4 mphSnowLight Snow
9:20 AM26.6 °F24.8 °F93 %29.71 in0.9 miWNW (290°)8.1 mphSnowLight Snow
9:50 AM26.6 °F23.0 °F86 %29.71 in1.4 miWest (270°)12.7 mphSnowLight Snow
10:00 AM26.0 °F23.0 °F83 %29.78 in1.0 miWest (270°)13.4 mphSnowLight Snow
10:20 AM26.6 °F23.0 °F86 %29.71 inWest (280°)12.7 mphSnowLight Snow
10:50 AM26.6 °F23.0 °F86 %29.71 inWest (270°)15.0 mphSnowLight Snow
11:20 AM28.4 °F23.0 °F80 %29.71 in3.1 miWest (280°)16.1 mphSnowLight Snow
11:50 AM28.4 °F23.0 °F80 %29.71 in4.3 miWest (280°)16.1 mphSnowLight Snow
12:20 PM28.4 °F21.2 °F74 %29.71 in5.6 miWest (270°)16.1 mphSnowLight Snow
12:50 PM28.4 °F21.2 °F74 %29.71 in6.2 miWest (280°)17.3 mphSnowLight Snow
1:00 PM29.0 °F20.0 °F59 %29.77 in7.0 miWest (280°)17.9 mphSnowLight Snow
1:20 PM28.4 °F19.4 °F69 %29.71 in6.2 miWest (270°)15.0 mphMostly Cloudy
1:50 PM28.4 °F21.2 °F74 %29.71 in4.3 miWest (270°)16.1 mphSnowLight Snow
2:20 PM28.4 °F21.2 °F74 %29.71 in6.2 miWest (270°)16.1 mphMostly Cloudy
2:50 PM28.4 °F19.4 °F69 %29.68 in6.2 miWest (260°)15.0 mphMostly Cloudy
3:20 PM30.2 °F19.4 °F64 %29.71 in6.2 miWest (260°)16.1 mphMostly Cloudy
3:50 PM30.2 °F19.4 °F64 %29.68 in6.2 miWest (260°)17.3 mphMostly Cloudy
4:00 PM30.0 °F20.0 °F55 %29.75 in12.0 miWest (260°)17.9 mphPartly Cloudy
4:20 PM30.2 °F19.4 °F64 %29.68 in6.2 miWest (260°)15.0 mphMostly Cloudy
4:50 PM30.2 °F19.4 °F64 %29.71 in6.2 miWest (260°)12.7 mphMostly Cloudy
5:20 PM30.2 °F19.4 °F64 %29.68 in6.2 miWest (260°)11.5 mphMostly Cloudy
5:50 PM30.2 °F19.4 °F64 %29.71 in6.2 miWest (260°)9.2 mphMostly Cloudy
6:20 PM30.2 °F19.4 °F64 %29.71 in6.2 miWest (270°)10.4 mphMostly Cloudy
6:50 PM30.2 °F19.4 °F64 %29.71 in6.2 miNW (320°)6.9 mphMostly Cloudy
7:00 PM31.0 °F19.0 °F50 %29.79 in19.0 miNW (320°)6.7 mphPartly Cloudy
7:20 PM30.2 °F15.8 °F55 %29.74 in6.2 miNW (320°)9.2 mphMostly Cloudy
7:50 PM30.2 °F17.6 °F60 %29.74 in6.2 miNW (310°)10.4 mphMostly Cloudy
8:20 PM30.2 °F17.6 °F60 %29.74 in6.2 miWest (280°)9.2 mphMostly Cloudy
8:50 PM30.2 °F15.8 °F55 %29.74 in6.2 miWest (280°)9.2 mphMostly Cloudy
9:20 PM30.2 °F17.6 °F60 %29.74 in6.2 miWNW (290°)10.4 mphMostly Cloudy
9:50 PM30.2 °F17.6 °F60 %29.74 in6.2 miWNW (290°)10.4 mphMostly Cloudy
10:00 PM30.0 °F18.0 °F47 %29.81 in22.0 miWNW (290°)11.2 mphOvercast
10:20 PM30.2 °F17.6 °F60 %29.74 in6.2 miWNW (290°)8.1 mphMostly Cloudy
10:50 PM30.2 °F17.6 °F60 %29.74 in6.2 miWNW (300°)8.1 mphMostly Cloudy
11:20 PM30.2 °F17.6 °F60 %29.74 in6.2 miNW (320°)9.2 mphMostly Cloudy
11:50 PM28.4 °F15.8 °F59 %29.74 in6.2 miNNW (330°)11.5 mphOvercast
Hourly data recorded from LOWL, located miles away from Linz, Austria







STORIES FROM OUR PARTNERS